Location: Kermapucano
(48.0667°N, 3.3000°W)
Time: 20:25:26
(UTC+00:00)

METEOR-M - Pass Details

Date: 29 November 2020
Orbit: 817 x 818 km, 98.5° (Epoch: 27 January)

Event Time Altitude Azimuth Distance (km) Brightness Sun altitude
Rises 05:31:44 0° 11° (N) 3,358 7.3 -20.7°
Reaches altitude 10° 05:34:07 10° 7° (N) 2,422 6.6 -20.3°
Maximum altitude 05:39:21 58° 290° (WNW) 954 4.1 -19.5°
Drops below altitude 10° 05:44:34 10° 213° (SSW) 2,406 6.4 -18.6°
Sets 05:46:56 0° 209° (SSW) 3,335 7.1 -18.2°
